Temperature
17 17 16 16 16 16 16 16 15 15 15 15 15 15 15 15 15 14 14 14 14 14 14 14 14 14 14 13 13 13 13 13 13 12 12 12 12 12 12 12 12 12 12
17 17 16 16 16 16 16 15 15 15 15 15 15 15 15 15 14 14 14 14 14 14 14 14 14 13 13 13 13 13 13 13 13 12 12 12 12 12 12 12 11 11 11
17 17 16 16 16 16 16 15 15 15 15 15 15 15 15 14 14 14 14 14 14 14 14 14 13 13 13 13 13 13 13 13 12 12 12 12 12 12 12 12 11 11 11
17 17 17 16 16 16 16 15 15 15 15 15 15 15 15 14 14 14 14 14 14 14 13 13 13 13 13 13 13 13 13 12 12 12 12 12 12 12 12 12 12 11 11
17 17 17 16 16 16 16 15 15 15 15 15 15 14 14 14 14 14 14 14 14 13 13 13 13 13 13 13 12 12 12 12 12 12 12 12 12 11 11 11 11 11 11
17 17 17 16 16 16 16 15 15 15 15 15 14 14 14 14 14 14 14 14 13 13 13 13 13 13 13 12 12 12 12 12 12 12 12 11 11 11 11 11 11 11 11
17 17 16 16 16 16 15 15 15 15 15 14 14 14 14 14 14 14 14 13 13 13 13 13 13 13 12 12 12 12 12 12 12 11 11 11 11 11 11 11 11 10 10
17 17 16 16 16 16 15 15 15 15 14 14 14 14 14 14 14 14 13 13 13 13 13 13 13 12 12 12 12 12 12 12 12 11 11 11 11 10 10 10 10 10 10
17 16 16 16 16 16 15 15 15 15 14 14 14 14 14 14 14 13 13 13 13 13 12 12 12 12 12 12 12 12 12 12 11 11 11 11 11 10 10 10 10 10 10
16 16 16 16 16 16 15 15 15 15 14 14 14 14 14 14 13 13 13 13 13 13 12 12 12 12 12 12 12 11 11 11 11 11 11 11 11 10 10 10 10 9 9
16 16 16 16 16 16 15 15 15 15 14 14 14 14 13 13 13 13 13 13 13 12 12 12 12 12 11 11 11 11 11 11 11 11 11 11 10 10 10 10 9 9 9
16 16 16 16 15 15 15 15 15 14 14 14 14 13 13 13 13 13 13 12 12 12 12 12 12 11 11 11 11 11 11 11 11 11 10 10 10 10 10 9 9 9 8
15 15 16 15 15 15 15 15 14 14 14 14 13 13 13 13 13 13 13 12 12 12 12 12 11 11 11 11 11 11 10 10 10 10 10 10 10 9 9 9 9 8 8
15 15 15 15 15 15 15 14 14 14 14 13 13 13 13 13 13 12 12 12 12 12 11 11 11 11 11 11 11 10 10 10 10 10 10 9 9 9 9 9 9 8 8
15 15 15 15 15 15 14 14 14 14 14 13 13 13 13 13 13 12 12 12 12 11 11 11 11 11 11 10 10 10 10 10 10 9 9 9 9 9 9 8 8 8 8
15 15 15 14 14 14 14 14 14 13 13 13 13 13 13 12 12 12 12 11 11 11 11 11 11 10 10 10 10 10 10 9 9 9 9 9 8 8 8 8 8 7 7
14 14 14 14 14 14 14 13 13 13 13 13 12 12 12 12 12 12 11 11 11 10 10 10 10 10 10 10 9 9 9 9 9 9 8 8 8 8 8 7 7 7 7
14 14 14 14 14 14 13 13 13 13 13 12 12 12 12 12 11 11 11 10 10 10 10 10 10 10 10 9 9 9 9 9 8 8 8 8 7 7 7 7 7 6 6
14 13 13 13 13 13 13 13 12 12 12 12 12 12 11 11 11 10 10 10 10 10 10 10 10 10 9 9 9 9 8 8 8 8 8 7 7 7 7 6 6 6 5
13 13 13 13 13 13 12 12 12 12 12 11 11 11 11 10 10 10 10 10 10 10 10 10 9 9 9 9 9 8 8 8 7 7 7 7 7 7 6 6 6 5 5
13 13 13 12 12 12 12 12 12 11 11 11 11 11 10 10 10 10 10 10 9 9 9 9 9 9 9 8 8 8 8 7 7 7 7 7 6 6 6 5 5 5 4
12 12 12 12 12 12 12 11 11 11 11 11 10 10 10 10 10 9 9 9 9 9 9 9 8 8 8 8 8 7 7 7 7 6 6 6 6 6 5 5 5 4 4
12 11 11 11 11 11 11 11 10 10 10 10 10 10 9 9 9 9 9 9 8 8 8 8 8 8 8 7 7 7 7 7 6 6 6 5 5 5 5 4 4 4 3
11 11 11 11 11 10 10 10 10 10 10 10 9 9 9 9 9 8 8 8 8 8 8 8 7 7 7 7 7 7 6 6 6 6 5 5 5 4 4 4 4 3 3
11 11 10 10 10 10 10 10 9 9 9 9 9 9 8 8 8 8 8 8 7 7 7 7 7 7 7 6 6 6 6 6 5 5 5 4 4 4 4 3 3 3 3
10 10 10 10 10 9 9 9 9 9 8 8 8 8 8 8 7 7 7 7 7 7 7 7 6 6 6 6 6 5 5 5 5 4 4 4 3 3 3 3 3 2 2
Wind_Speed
8 7 6 5 5 5 5 5 5 4 4 4 4 4 3 3 3 4 3 3 3 2 2 3 1 1 2 2 1 2 2 3 2 2 1 1 1 1 2 2 3 3 4
8 7 6 6 5 5 5 5 5 5 4 4 4 4 4 3 3 4 3 3 3 2 2 2 1 2 2 1 1 1 1 2 3 1 1 1 1 2 1 1 3 3 4
7 7 6 6 6 6 5 5 5 5 4 4 4 4 4 3 3 3 3 3 3 2 2 2 1 2 2 1 1 1 0 1 1 2 1 1 2 2 2 2 3 3 4
8 8 7 7 7 6 5 5 5 5 5 5 4 4 4 4 4 3 3 3 3 2 2 2 2 2 2 1 1 1 1 2 2 1 0 1 1 2 1 2 3 3 3
8 8 8 8 7 6 6 6 5 5 6 5 5 4 4 4 3 4 4 4 3 2 1 0 1 2 2 2 2 2 2 1 1 1 0 1 1 1 1 1 2 3 3
9 9 8 7 7 7 6 6 5 5 4 5 5 5 4 4 5 7 6 4 3 3 1 1 1 0 0 1 1 2 3 3 2 1 1 1 2 2 2 1 1 2 3
8 8 8 8 8 8 7 6 6 5 4 4 5 5 5 5 6 7 7 5 4 3 3 1 0 0 0 0 0 1 0 2 3 3 3 3 3 3 2 1 1 2 3
7 7 8 8 8 7 7 7 6 5 5 5 4 5 4 4 6 6 6 4 3 2 2 3 2 1 1 1 1 1 1 2 2 2 3 4 4 3 4 3 3 2 3
6 7 8 9 9 8 8 7 6 5 5 4 5 5 5 4 6 7 7 3 3 2 2 2 2 2 2 1 2 1 1 3 3 2 3 3 3 3 2 1 1 1 2
7 7 7 9 10 10 9 8 5 5 6 5 4 5 5 4 5 7 7 4 3 2 1 1 2 2 2 1 2 2 1 3 2 2 3 3 2 2 2 2 3 1 1
6 5 6 8 9 9 8 6 6 6 5 5 4 4 4 5 5 7 8 5 4 3 2 2 2 3 3 3 2 3 4 2 1 1 1 2 2 2 1 1 3 3 3
5 5 6 7 7 7 7 6 6 7 6 5 4 3 3 4 5 7 8 7 5 4 4 3 3 3 3 3 3 3 3 1 0 0 1 2 2 3 3 2 3 4 4
5 5 5 6 5 6 7 7 6 6 6 5 5 4 3 3 3 6 7 7 7 4 3 4 3 3 2 2 3 3 1 1 1 1 2 3 3 3 2 1 2 1 2
6 5 5 5 5 5 5 6 7 7 6 6 6 5 4 3 3 3 3 4 4 3 2 2 2 2 2 2 2 1 1 2 2 3 3 3 2 2 2 1 2 1 2
6 5 5 5 5 5 5 5 6 7 8 8 7 7 6 6 7 7 6 4 4 4 3 1 0 0 1 1 1 2 2 1 2 2 2 2 2 2 2 1 1 1 1
6 5 4 4 4 4 4 2 2 4 6 8 8 7 6 7 7 8 8 7 7 7 4 2 3 3 3 3 3 2 2 2 2 2 2 2 2 2 2 2 1 1 2
7 6 5 5 5 5 5 5 3 2 2 5 7 8 8 7 7 8 8 7 7 7 3 4 4 4 4 4 3 3 3 3 2 2 2 2 2 2 2 2 2 2 2
6 5 5 5 5 5 5 5 5 5 3 2 3 5 7 8 8 8 7 5 3 4 4 4 5 4 4 4 3 3 3 2 1 2 2 2 2 2 2 2 2 3 3
5 5 5 5 5 5 5 4 4 5 4 3 2 2 4 5 5 6 6 4 4 4 4 4 4 4 4 3 3 3 3 2 2 2 2 2 2 2 2 3 3 3 3
4 6 6 5 5 4 4 4 4 5 5 4 4 4 3 3 3 3 4 4 4 4 4 4 4 4 4 3 3 3 3 3 3 3 3 3 3 2 3 3 3 3 3
3 4 6 5 5 5 5 5 5 5 5 5 5 5 6 5 5 5 5 5 5 5 4 4 3 3 3 3 3 3 3 3 3 3 3 3 2 2 2 2 3 3 2
3 3 4 4 4 4 4 4 5 5 5 5 3 3 6 4 4 4 4 4 4 4 4 4 3 3 3 3 3 3 3 3 3 3 3 3 2 2 2 2 2 2 2
4 4 3 3 3 4 4 4 4 4 4 4 4 4 4 4 4 4 4 3 3 3 3 3 3 2 2 3 3 3 4 4 4 4 3 3 2 2 2 2 2 2 2
4 4 4 3 3 3 3 4 4 4 4 4 4 4 4 4 3 3 3 2 2 2 2 2 3 4 3 2 2 3 3 4 4 4 4 3 3 2 2 2 2 3 3
3 3 4 4 3 3 3 3 3 3 3 3 3 3 3 3 3 3 2 2 2 2 1 2 2 3 3 3 3 3 3 3 3 3 3 3 2 2 2 2 2 2 2
3 3 3 3 3 3 3 3 3 3 3 3 3 3 3 3 3 3 2 2 2 1 1 1 1 2 2 2 3 3 3 3 3 4 3 3 2 2 2 2 2 3 3
Wind_Direction
178 177 172 175 171 162 168 177 176 168 157 151 153 143 130 121 115 111 110 107 100 75 68 88 68 59 64 51 71 96 116 138 169 275 279 298 342 323 334 330 311 305 304
176 166 167 170 162 161 175 184 171 161 157 153 149 141 137 134 131 125 125 116 116 108 89 84 59 72 62 55 68 85 130 157 162 207 296 313 292 282 298 309 322 312 304
170 165 164 166 165 170 177 172 165 159 154 150 146 150 153 152 145 141 139 132 129 131 124 115 113 96 63 53 75 67 85 107 132 157 262 292 297 323 334 324 329 324 323
169 168 172 177 177 176 172 168 167 163 159 157 159 162 162 157 150 144 139 132 126 118 119 128 144 141 147 140 109 108 104 92 90 104 6 318 304 317 0 318 322 317 317
173 177 185 184 176 167 168 172 169 166 169 164 159 160 160 158 160 149 144 140 136 123 95 118 168 152 150 148 132 147 126 109 107 111 334 341 321 333 303 278 297 307 307
178 187 186 176 172 171 174 171 166 169 168 157 161 165 169 181 164 155 148 147 147 153 172 239 287 98 206 164 147 149 148 153 171 177 212 244 268 262 260 262 284 355 316
181 185 182 179 178 180 177 168 171 175 169 165 169 171 179 188 176 166 158 151 156 169 178 187 236 337 127 167 122 68 76 188 181 180 198 228 235 237 216 249 248 236 254
180 184 183 180 180 177 173 177 179 173 173 177 181 181 184 198 183 173 161 148 149 171 184 184 191 242 230 158 145 87 337 300 259 221 214 231 234 226 206 212 229 253 283
185 188 188 183 180 177 180 185 181 172 177 180 179 180 187 209 191 175 157 147 153 190 201 182 179 208 239 166 136 166 306 312 315 280 262 270 274 266 208 117 356 12 316
197 195 191 184 183 185 187 185 178 175 181 175 177 188 191 205 198 183 166 158 168 193 218 226 210 213 236 185 165 177 241 278 301 349 347 327 319 300 259 191 196 209 273
196 190 187 185 187 186 183 179 174 175 171 176 184 198 204 208 204 191 176 170 181 189 205 234 244 236 245 229 203 211 235 242 234 254 302 312 319 317 300 238 196 192 209
176 181 187 186 185 181 175 177 175 173 176 184 188 205 227 222 208 203 194 189 182 182 207 221 230 232 238 238 236 250 255 249 227 283 308 299 293 286 279 269 248 233 231
170 183 189 182 181 173 174 178 176 178 183 190 189 202 221 223 217 209 201 195 190 194 213 213 216 225 239 253 262 259 244 212 209 238 261 265 264 266 280 305 309 302 297
176 187 185 179 176 172 177 180 184 189 192 195 197 204 210 210 213 204 197 198 194 200 212 215 214 231 239 262 296 283 242 221 217 237 254 263 276 283 278 276 282 295 312
180 185 184 182 179 179 183 192 198 204 199 196 201 198 196 212 220 201 186 192 191 189 163 144 154 249 270 283 291 284 273 262 255 257 258 278 283 287 286 281 270 274 270
178 185 188 185 181 178 178 187 223 208 201 200 198 194 208 213 202 191 192 196 187 167 147 179 210 221 231 242 252 267 262 254 253 249 249 255 266 275 282 285 276 259 274
183 187 187 185 184 183 184 184 198 240 210 202 209 209 207 203 196 191 191 192 185 167 173 204 215 220 229 235 237 238 248 254 247 238 245 256 263 267 274 275 278 280 283
181 186 189 189 188 188 191 195 193 192 203 235 238 217 205 198 193 189 177 153 175 187 205 213 220 225 227 228 229 233 243 253 248 252 255 259 258 261 272 278 273 274 281
181 186 191 190 187 189 187 187 189 190 194 200 194 214 199 187 183 183 165 173 195 212 220 226 227 226 225 223 226 227 228 237 250 255 258 257 256 253 261 266 266 276 281
189 192 188 184 182 181 182 185 191 192 195 197 202 199 172 153 172 185 188 196 205 216 219 224 228 226 222 220 220 220 226 236 245 247 251 251 248 243 251 258 261 270 273
180 189 186 177 181 185 186 191 194 194 197 201 210 203 182 184 197 201 202 207 213 217 216 216 218 222 222 218 215 215 221 237 245 248 249 250 247 251 256 258 264 268 280
172 174 175 180 182 181 183 188 189 192 195 197 201 195 188 187 196 202 209 216 216 213 208 201 207 214 213 212 208 208 223 240 248 247 245 243 238 244 252 260 273 284 287
163 162 167 172 176 178 180 182 186 190 193 194 192 185 186 194 199 203 207 208 204 202 198 189 194 206 208 205 208 208 220 233 238 233 228 227 225 227 235 249 259 272 279
164 168 169 172 172 177 185 190 192 194 194 194 193 189 189 192 196 201 200 194 194 199 191 187 190 195 206 212 218 224 229 233 229 218 204 202 210 218 225 247 256 263 265
160 165 168 173 177 181 184 190 194 194 193 193 192 188 183 182 185 191 194 180 170 170 180 186 181 189 200 216 227 230 231 224 211 194 178 181 189 204 219 244 260 266 271
153 163 170 173 177 181 183 189 195 194 194 196 192 186 182 182 184 187 183 170 167 169 173 183 198 212 221 233 236 226 219 212 200 189 168 166 184 208 221 240 262 263 267
Height
1544 1545 1547 1548 1549 1550 1550 1551 1552 1552 1553 1554 1554 1555 1555 1555 1555 1556 1556 1556 1556 1556 1555 1555 1555 1555 1555 1555 1554 1554 1554 1554 1553 1552 1552 1551 1550 1549 1548 1546 1545 1544 1542
1542 1543 1545 1546 1547 1548 1549 1549 1550 1551 1552 1552 1553 1554 1554 1555 1555 1555 1555 1555 1555 1555 1555 1555 1554 1554 1554 1554 1554 1553 1553 1552 1552 1551 1551 1550 1549 1547 1546 1545 1544 1543 1541
1540 1541 1543 1544 1545 1546 1547 1548 1549 1550 1551 1551 1552 1553 1553 1554 1554 1554 1554 1554 1554 1554 1554 1554 1553 1553 1553 1553 1553 1552 1552 1551 1551 1550 1549 1548 1547 1546 1545 1544 1543 1541 1540
1537 1539 1541 1542 1543 1544 1546 1547 1548 1548 1549 1550 1551 1552 1552 1553 1553 1553 1553 1553 1553 1553 1553 1553 1552 1552 1552 1552 1551 1551 1551 1550 1549 1548 1547 1547 1546 1545 1543 1542 1540 1539 1538
1535 1537 1538 1540 1541 1543 1544 1545 1546 1547 1548 1549 1549 1550 1551 1551 1552 1552 1552 1552 1552 1552 1552 1551 1551 1551 1551 1550 1550 1550 1549 1549 1548 1547 1546 1545 1544 1542 1541 1540 1538 1537 1536
1532 1534 1536 1537 1539 1540 1542 1543 1544 1545 1546 1547 1548 1548 1549 1550 1550 1550 1550 1550 1550 1550 1550 1550 1550 1549 1549 1549 1549 1548 1548 1547 1546 1545 1544 1543 1542 1541 1540 1538 1536 1535 1533
1529 1531 1533 1534 1536 1538 1539 1541 1542 1543 1544 1545 1546 1547 1547 1548 1548 1548 1549 1549 1549 1548 1548 1548 1548 1548 1547 1547 1547 1546 1546 1545 1545 1544 1542 1541 1540 1539 1537 1536 1534 1533 1531
1525 1527 1529 1531 1533 1535 1536 1538 1539 1540 1542 1543 1544 1544 1545 1546 1546 1546 1546 1547 1546 1546 1546 1546 1546 1546 1545 1545 1545 1544 1543 1543 1542 1541 1540 1539 1538 1537 1535 1534 1532 1531 1529
1522 1524 1526 1528 1529 1531 1533 1534 1536 1538 1539 1540 1541 1542 1543 1543 1544 1544 1544 1544 1544 1544 1544 1544 1544 1544 1543 1543 1542 1541 1541 1540 1540 1539 1538 1536 1535 1534 1533 1531 1530 1528 1525
1518 1520 1522 1524 1526 1527 1529 1531 1533 1534 1536 1537 1538 1539 1540 1540 1541 1541 1541 1541 1541 1541 1541 1541 1541 1541 1541 1540 1540 1539 1538 1537 1537 1536 1535 1534 1532 1531 1530 1529 1527 1525 1523
1515 1517 1519 1520 1522 1524 1526 1528 1529 1531 1532 1534 1535 1536 1537 1537 1537 1538 1538 1538 1538 1539 1539 1538 1538 1538 1538 1538 1537 1537 1536 1535 1534 1533 1531 1530 1529 1528 1527 1525 1524 1523 1521
1512 1513 1515 1517 1519 1520 1522 1524 1526 1527 1529 1530 1531 1532 1533 1534 1534 1535 1535 1535 1536 1536 1536 1536 1536 1535 1535 1535 1534 1533 1533 1532 1531 1529 1528 1526 1525 1524 1523 1522 1521 1519 1518
1508 1510 1511 1513 1515 1516 1518 1520 1522 1523 1525 1526 1527 1528 1529 1530 1530 1531 1532 1532 1532 1533 1533 1533 1532 1532 1532 1531 1531 1530 1529 1528 1527 1525 1524 1523 1522 1521 1520 1518 1517 1515 1514
1504 1506 1508 1509 1511 1513 1514 1516 1518 1519 1520 1521 1522 1523 1525 1526 1526 1527 1528 1528 1529 1529 1529 1529 1529 1529 1528 1528 1527 1526 1525 1524 1523 1522 1521 1519 1518 1517 1516 1514 1512 1511 1509
1501 1502 1504 1505 1507 1509 1510 1512 1513 1514 1516 1517 1518 1519 1520 1521 1522 1523 1524 1524 1525 1525 1526 1525 1525 1525 1524 1523 1523 1522 1521 1520 1519 1518 1517 1516 1514 1513 1511 1510 1508 1506 1505
1497 1498 1500 1501 1503 1505 1506 1507 1509 1511 1512 1513 1515 1516 1517 1518 1519 1520 1520 1521 1521 1522 1522 1521 1521 1520 1520 1520 1519 1518 1517 1516 1515 1514 1513 1512 1510 1508 1507 1505 1504 1502 1500
1493 1494 1496 1497 1499 1500 1502 1503 1504 1506 1508 1509 1510 1511 1512 1513 1514 1515 1516 1517 1517 1517 1517 1516 1516 1516 1516 1516 1515 1514 1513 1512 1511 1510 1509 1507 1506 1504 1502 1501 1499 1498 1496
1489 1490 1492 1493 1495 1496 1498 1499 1500 1501 1502 1503 1505 1506 1507 1508 1509 1510 1512 1512 1512 1512 1512 1512 1512 1512 1512 1511 1511 1510 1509 1508 1507 1506 1504 1503 1502 1500 1498 1496 1495 1494 1492
1485 1486 1488 1490 1491 1493 1494 1495 1496 1497 1498 1499 1500 1501 1502 1503 1505 1506 1506 1507 1507 1507 1507 1508 1508 1508 1507 1507 1506 1506 1505 1504 1502 1501 1500 1498 1497 1495 1494 1492 1491 1489 1488
1481 1482 1484 1485 1487 1488 1489 1491 1492 1493 1494 1494 1495 1496 1497 1498 1499 1500 1501 1501 1502 1502 1503 1503 1503 1503 1503 1502 1502 1501 1500 1499 1498 1496 1495 1494 1492 1491 1489 1488 1486 1485 1483
1476 1478 1479 1480 1482 1483 1484 1486 1487 1488 1489 1490 1491 1492 1493 1494 1494 1495 1496 1496 1497 1497 1498 1498 1498 1498 1498 1497 1496 1496 1495 1494 1492 1491 1490 1489 1487 1486 1485 1483 1482 1480 1479
1472 1473 1474 1475 1477 1478 1480 1481 1482 1483 1484 1485 1486 1487 1488 1489 1490 1490 1490 1491 1492 1492 1493 1493 1493 1493 1493 1492 1491 1490 1489 1488 1487 1486 1485 1483 1482 1481 1480 1478 1477 1476 1474
1468 1469 1470 1471 1472 1473 1475 1476 1477 1478 1479 1480 1481 1482 1483 1484 1485 1486 1486 1486 1487 1487 1488 1488 1488 1488 1488 1487 1486 1485 1484 1483 1482 1481 1479 1478 1477 1476 1474 1473 1472 1471 1470
1464 1465 1466 1467 1468 1469 1470 1471 1473 1474 1475 1476 1476 1477 1478 1479 1480 1481 1481 1482 1482 1482 1483 1482 1482 1482 1482 1482 1481 1480 1479 1478 1477 1475 1474 1473 1472 1471 1470 1469 1468 1466 1465
1460 1461 1462 1463 1464 1465 1466 1467 1468 1469 1470 1471 1472 1473 1474 1474 1475 1476 1476 1477 1477 1477 1477 1477 1477 1477 1476 1476 1475 1475 1474 1473 1471 1470 1469 1468 1467 1466 1465 1464 1463 1462 1461
1456 1457 1458 1459 1460 1461 1462 1463 1464 1465 1466 1467 1468 1468 1469 1469 1470 1471 1471 1472 1472 1472 1472 1472 1472 1472 1471 1471 1470 1469 1468 1467 1466 1465 1464 1463 1462 1461 1460 1459 1458 1457 1456